TimePST,TemperatureF,Dew PointF,Humidity,Sea Level PressureIn,VisibilityMPH,Wind Direction,Wind SpeedMPH,Gust SpeedMPH,PrecipitationIn,Events,Conditions,WindDirDegrees,DateUTC
12:06 AM,30.2,24.8,80,29.70,1.0,South,11.5,24.2,0.00,Snow,Light Snow,190,2012-12-26 08:06:00
12:13 AM,30.2,24.8,80,29.69,1.5,South,8.1,24.2,0.00,Snow,Light Snow,170,2012-12-26 08:13:00
12:16 AM,30.2,24.8,80,29.69,2.0,South,9.2,-,0.00,Snow,Light Snow,180,2012-12-26 08:16:00
12:25 AM,32.0,24.8,75,29.68,4.0,SSW,13.8,32.2,0.00,Snow,Light Snow,200,2012-12-26 08:25:00
12:31 AM,32.0,23.0,69,29.68,6.0,South,15.0,25.3,0.00,Snow,Light Snow,190,2012-12-26 08:31:00
12:53 AM,32.0,23.0,69,29.65,9.0,SW,9.2,20.7,0.00,,Overcast,220,2012-12-26 08:53:00
12:58 AM,32.0,23.0,69,29.67,2.5,SSW,10.4,20.7,0.00,Snow,Light Snow,210,2012-12-26 08:58:00
1:05 AM,30.2,24.8,80,29.67,1.2,SSW,12.7,19.6,0.01,Snow,Light Snow,210,2012-12-26 09:05:00
1:26 AM,32.0,23.0,69,29.66,2.5,SSW,10.4,26.5,0.01,Snow,Light Snow,210,2012-12-26 09:26:00
1:29 AM,32.0,23.0,69,29.67,5.0,SSW,11.5,26.5,0.01,Snow,Light Snow,200,2012-12-26 09:29:00
1:38 AM,32.0,23.0,69,29.67,2.5,SSW,11.5,23.0,0.01,Snow,Light Snow,200,2012-12-26 09:38:00
1:45 AM,30.2,24.8,80,29.67,0.8,South,13.8,23.0,0.01,Snow,Light Snow,190,2012-12-26 09:45:00
1:53 AM,30.0,25.0,82,29.67,0.8,SSW,9.2,19.6,0.01,Snow,Light Snow,200,2012-12-26 09:53:00
2:00 AM,30.2,24.8,80,29.68,1.0,SSW,8.1,-,0.00,Snow,Light Snow,210,2012-12-26 10:00:00
2:09 AM,30.2,24.8,80,29.68,0.8,South,12.7,17.3,0.00,Snow,Light Snow,190,2012-12-26 10:09:00
2:15 AM,30.2,24.8,80,29.68,1.5,SSW,13.8,29.9,0.01,Snow,Light Snow,200,2012-12-26 10:15:00
2:24 AM,30.2,23.0,75,29.68,3.0,SW,11.5,29.9,0.01,Snow,Light Snow,220,2012-12-26 10:24:00
2:38 AM,30.2,21.2,69,29.68,2.0,SSW,12.7,26.5,0.01,Snow,Light Snow,210,2012-12-26 10:38:00
2:50 AM,30.2,21.2,69,29.67,4.0,SSW,11.5,23.0,0.01,Snow,Light Snow,210,2012-12-26 10:50:00
2:53 AM,30.9,21.0,67,29.67,5.0,SSW,12.7,23.0,0.01,Snow,Light Snow,200,2012-12-26 10:53:00
2:59 AM,30.2,21.2,69,29.67,2.5,South,18.4,27.6,0.00,Snow,Light Snow,190,2012-12-26 10:59:00
3:14 AM,30.2,19.4,64,29.67,4.0,SSW,13.8,25.3,0.00,Snow,Light Snow,200,2012-12-26 11:14:00
3:18 AM,28.4,21.2,74,29.67,1.8,South,18.4,32.2,0.00,Snow,Light Snow,190,2012-12-26 11:18:00
3:27 AM,28.4,21.2,74,29.67,3.0,South,13.8,25.3,0.00,Snow,Light Snow,170,2012-12-26 11:27:00
3:38 AM,28.4,19.4,69,29.67,5.0,South,16.1,21.9,0.00,Snow,Light Snow,180,2012-12-26 11:38:00
3:43 AM,28.4,21.2,74,29.67,2.5,South,9.2,21.9,0.00,Snow,Light Snow,190,2012-12-26 11:43:00
3:53 AM,28.0,21.0,75,29.67,1.5,SSE,6.9,16.1,0.00,Snow,Light Snow,150,2012-12-26 11:53:00
4:06 AM,28.4,19.4,69,29.67,3.0,South,12.7,17.3,0.00,Snow,Light Snow,170,2012-12-26 12:06:00
4:25 AM,26.6,19.4,74,29.68,1.8,South,16.1,21.9,0.00,Snow,Light Snow,170,2012-12-26 12:25:00
4:33 AM,26.6,21.2,80,29.68,0.5,South,9.2,24.2,0.00,Snow,Snow,180,2012-12-26 12:33:00
4:44 AM,26.6,21.2,80,29.68,0.5,SSE,9.2,20.7,0.01,Snow,Snow,150,2012-12-26 12:44:00
4:53 AM,27.0,23.0,85,29.68,0.5,SE,6.9,-,0.01,Fog-Snow,Snow,130,2012-12-26 12:53:00
5:04 AM,28.4,21.2,74,29.67,1.2,South,8.1,-,0.01,Snow,Light Snow,170,2012-12-26 13:04:00
5:07 AM,28.4,21.2,74,29.68,3.0,Variable,6.9,-,0.01,Snow,Light Snow,0,2012-12-26 13:07:00
5:12 AM,28.4,21.2,74,29.68,4.0,Calm,Calm,-,0.01,Snow,Light Snow,0,2012-12-26 13:12:00
5:15 AM,28.4,21.2,74,29.68,1.8,Calm,Calm,-,0.01,Snow,Light Snow,0,2012-12-26 13:15:00
5:19 AM,28.4,21.2,74,29.68,0.8,Calm,Calm,-,0.01,Snow,Light Snow,0,2012-12-26 13:19:00
5:32 AM,28.4,21.2,74,29.69,0.5,Calm,Calm,-,0.02,Snow,Snow,0,2012-12-26 13:32:00
5:51 AM,28.4,23.0,80,29.69,1.0,Calm,Calm,-,0.03,Snow,Light Snow,0,2012-12-26 13:51:00
5:53 AM,28.0,23.0,81,29.69,1.0,Calm,Calm,-,0.03,Snow,Light Snow,0,2012-12-26 13:53:00
6:00 AM,26.6,23.0,86,29.70,0.5,Variable,3.5,-,0.01,Fog-Snow,Snow,0,2012-12-26 14:00:00
6:09 AM,28.4,21.2,74,29.69,0.8,South,10.4,17.3,0.01,Snow,Light Snow,180,2012-12-26 14:09:00
6:15 AM,26.6,21.2,80,29.70,1.0,South,10.4,17.3,0.01,Snow,Light Snow,170,2012-12-26 14:15:00
6:17 AM,26.6,21.2,80,29.70,1.0,South,6.9,17.3,0.01,Snow,Light Snow,180,2012-12-26 14:17:00
6:22 AM,26.6,21.2,80,29.70,2.0,Variable,5.8,-,0.01,Snow,Light Snow,0,2012-12-26 14:22:00
6:27 AM,26.6,21.2,80,29.70,0.8,SSE,6.9,-,0.01,Snow,Light Snow,160,2012-12-26 14:27:00
6:41 AM,26.6,21.2,80,29.70,2.5,East,4.6,-,0.01,Snow,Light Snow,90,2012-12-26 14:41:00
6:46 AM,26.6,21.2,80,29.70,3.0,ENE,8.1,-,0.01,Snow,Light Snow,70,2012-12-26 14:46:00
6:53 AM,27.0,21.0,78,29.70,4.0,East,6.9,-,0.01,Snow,Light Snow,90,2012-12-26 14:53:00
7:00 AM,28.4,19.4,69,29.71,9.0,ESE,8.1,-,0.00,,Overcast,110,2012-12-26 15:00:00
7:12 AM,26.6,19.4,74,29.72,2.5,ESE,6.9,-,0.00,Snow,Light Snow,110,2012-12-26 15:12:00
7:26 AM,26.6,21.2,80,29.73,3.0,SE,5.8,-,0.00,Snow,Light Snow,140,2012-12-26 15:26:00
7:37 AM,28.4,21.2,74,29.73,6.0,SE,4.6,-,0.00,Snow,Light Snow,140,2012-12-26 15:37:00
7:53 AM,27.0,21.0,78,29.74,6.0,SSE,8.1,-,0.00,Snow,Light Snow,150,2012-12-26 15:53:00
8:19 AM,26.6,21.2,80,29.74,2.5,South,9.2,-,0.00,Snow,Light Snow,180,2012-12-26 16:19:00
8:26 AM,26.6,21.2,80,29.75,0.8,South,8.1,-,0.00,Snow,Light Snow,180,2012-12-26 16:26:00
8:42 AM,26.6,21.2,80,29.75,0.2,Calm,Calm,-,0.01,Fog-Snow,Snow,0,2012-12-26 16:42:00
8:53 AM,27.0,21.9,81,29.75,1.2,SSE,3.5,-,0.01,Snow,Light Snow,150,2012-12-26 16:53:00
9:06 AM,26.6,21.2,80,29.75,1.0,South,10.4,-,0.01,Snow,Light Snow,180,2012-12-26 17:06:00
9:17 AM,26.6,21.2,80,29.75,0.8,South,10.4,-,0.01,Snow,Light Snow,180,2012-12-26 17:17:00
9:25 AM,26.6,19.4,74,29.75,2.0,South,12.7,19.6,0.01,Snow,Light Snow,190,2012-12-26 17:25:00
9:35 AM,26.6,19.4,74,29.76,5.0,South,13.8,-,0.01,,Haze,190,2012-12-26 17:35:00
9:42 AM,26.6,19.4,74,29.76,2.5,South,13.8,-,0.01,Snow,Light Snow,180,2012-12-26 17:42:00
9:51 AM,26.6,21.2,80,29.76,1.0,South,12.7,19.6,0.01,Snow,Light Snow,180,2012-12-26 17:51:00
9:53 AM,27.0,21.0,78,29.77,1.0,South,9.2,19.6,0.01,Snow,Light Snow,180,2012-12-26 17:53:00
10:08 AM,28.4,19.4,69,29.77,2.5,South,11.5,-,0.00,Snow,Light Snow,180,2012-12-26 18:08:00
10:18 AM,26.6,21.2,80,29.76,1.2,South,12.7,-,0.00,Snow,Light Snow,190,2012-12-26 18:18:00
10:39 AM,28.4,21.2,74,29.76,0.8,South,8.1,-,0.00,Snow,Light Snow,170,2012-12-26 18:39:00
10:53 AM,27.0,21.0,78,29.75,1.8,South,12.7,19.6,0.00,Snow,Light Snow,170,2012-12-26 18:53:00
11:03 AM,28.4,19.4,69,29.75,3.0,South,12.7,19.6,0.00,Snow,Light Snow,180,2012-12-26 19:03:00
11:12 AM,28.4,19.4,69,29.75,6.0,South,17.3,23.0,0.00,Snow,Light Snow,180,2012-12-26 19:12:00
11:16 AM,28.4,19.4,69,29.75,2.5,South,17.3,23.0,0.00,Snow,Light Snow,190,2012-12-26 19:16:00
11:33 AM,28.4,21.2,74,29.75,3.0,South,13.8,-,0.00,Snow,Light Snow,190,2012-12-26 19:33:00
11:41 AM,28.4,21.2,74,29.75,2.5,South,16.1,24.2,0.00,Snow,Light Snow,190,2012-12-26 19:41:00
11:50 AM,28.4,21.2,74,29.75,1.2,South,8.1,24.2,0.00,Snow,Light Snow,170,2012-12-26 19:50:00
11:53 AM,28.0,21.0,75,29.75,1.2,South,10.4,-,0.00,Snow,Light Snow,170,2012-12-26 19:53:00
12:15 PM,30.2,21.2,69,29.75,3.0,South,8.1,19.6,0.00,Snow,Light Snow,180,2012-12-26 20:15:00
12:33 PM,30.2,19.4,64,29.75,9.0,South,12.7,-,0.00,,Overcast,180,2012-12-26 20:33:00
12:41 PM,30.2,21.2,69,29.76,2.5,SSW,12.7,-,0.00,Snow,Light Snow,200,2012-12-26 20:41:00
12:45 PM,30.2,21.2,69,29.76,0.8,SSW,6.9,-,0.00,Snow,Light Snow,200,2012-12-26 20:45:00
12:53 PM,28.9,21.9,75,29.75,0.5,South,9.2,-,0.00,Snow,Snow,190,2012-12-26 20:53:00
1:08 PM,28.4,23.0,80,29.76,0.5,SSE,3.5,-,0.00,Snow,Snow,160,2012-12-26 21:08:00
1:17 PM,28.4,23.0,80,29.76,1.2,South,4.6,-,0.00,Snow,Light Snow,190,2012-12-26 21:17:00
1:26 PM,28.4,23.0,80,29.76,0.5,Variable,4.6,-,0.00,Snow,Snow,0,2012-12-26 21:26:00
1:32 PM,28.4,23.0,80,29.76,1.0,South,6.9,-,0.00,Snow,Light Snow,180,2012-12-26 21:32:00
1:37 PM,28.4,23.0,80,29.76,3.0,South,8.1,-,0.00,Snow,Light Snow,190,2012-12-26 21:37:00
1:44 PM,28.4,23.0,80,29.77,1.8,South,11.5,-,0.00,Snow,Light Snow,180,2012-12-26 21:44:00
1:53 PM,28.9,23.0,78,29.77,1.2,South,10.4,-,0.00,Snow,Light Snow,180,2012-12-26 21:53:00
2:01 PM,28.4,23.0,80,29.77,1.0,South,11.5,-,0.00,Snow,Light Snow,190,2012-12-26 22:01:00
2:09 PM,28.4,23.0,80,29.77,0.8,South,9.2,-,0.01,Snow,Light Snow,180,2012-12-26 22:09:00
2:15 PM,28.4,23.0,80,29.77,2.5,South,8.1,-,0.01,Snow,Light Snow,170,2012-12-26 22:15:00
2:18 PM,28.4,23.0,80,29.77,5.0,South,8.1,-,0.01,Snow,Light Snow,190,2012-12-26 22:18:00
2:21 PM,28.4,21.2,74,29.77,1.5,South,11.5,-,0.01,Snow,Light Snow,170,2012-12-26 22:21:00
2:25 PM,28.4,21.2,74,29.78,0.2,SSW,8.1,-,0.01,Snow,Heavy Snow,200,2012-12-26 22:25:00
2:41 PM,28.4,24.8,86,29.78,0.2,South,8.1,-,0.02,Fog-Snow,Snow,180,2012-12-26 22:41:00
2:53 PM,28.0,24.1,85,29.79,1.0,South,8.1,-,0.02,Snow,Light Snow,170,2012-12-26 22:53:00
2:58 PM,28.4,23.0,80,29.79,2.0,South,6.9,-,0.00,Snow,Light Snow,190,2012-12-26 22:58:00
3:01 PM,28.4,23.0,80,29.79,4.0,SSW,3.5,-,0.00,Snow,Light Snow,200,2012-12-26 23:01:00
3:08 PM,30.2,21.2,69,29.79,9.0,Calm,Calm,-,0.00,,Overcast,0,2012-12-26 23:08:00
3:40 PM,28.4,21.2,74,29.79,4.0,SSW,6.9,-,0.00,Snow,Light Snow,200,2012-12-26 23:40:00
3:53 PM,28.0,21.9,78,29.82,5.0,South,8.1,-,0.00,Snow,Light Snow,190,2012-12-26 23:53:00
3:59 PM,28.4,21.2,74,29.80,2.5,South,6.9,-,0.00,Snow,Light Snow,190,2012-12-26 23:59:00
4:15 PM,28.4,21.2,74,29.81,4.0,South,9.2,-,0.00,,Haze,190,2012-12-27 00:15:00
4:28 PM,28.4,21.2,74,29.81,8.0,South,6.9,-,0.00,,Overcast,180,2012-12-27 00:28:00
4:43 PM,28.4,19.4,69,29.82,10.0,South,6.9,-,0.00,,Mostly Cloudy,180,2012-12-27 00:43:00
4:53 PM,23.0,17.1,78,29.87,10.0,South,6.9,-,0.00,,Mostly Cloudy,190,2012-12-27 00:53:00
5:29 PM,24.8,19.4,80,29.83,10.0,SW,10.4,19.6,N/A,,Mostly Cloudy,220,2012-12-27 01:29:00
5:53 PM,25.0,19.0,78,29.87,10.0,SSW,6.9,-,N/A,,Overcast,200,2012-12-27 01:53:00
6:53 PM,24.1,18.0,77,29.89,10.0,SSW,5.8,-,N/A,,Clear,200,2012-12-27 02:53:00
7:53 PM,19.0,14.0,81,29.93,10.0,South,3.5,-,N/A,,Clear,190,2012-12-27 03:53:00
8:53 PM,15.1,10.0,80,29.97,5.0,Calm,Calm,-,N/A,,Haze,0,2012-12-27 04:53:00
9:53 PM,18.0,14.0,84,29.96,10.0,Calm,Calm,-,N/A,,Overcast,0,2012-12-27 05:53:00
10:53 PM,19.0,15.1,85,29.98,10.0,Calm,Calm,-,N/A,,Overcast,0,2012-12-27 06:53:00
11:53 PM,19.9,16.0,85,29.98,10.0,South,4.6,-,N/A,,Overcast,180,2012-12-27 07:53:00